Date String (YYYY-MM-DD hh:mm:ss) UTC,Instrument flags,Ambient pressure (hPa),Sample flow (lpm),Bypass flow (lpm),Sample temperature (°C),Ambient temperature (°C),ASC tube jacket temperature (°C),LED temperature (°C),Box temperature (°C),Sample RH (%),Span deviation,Mass concentration (μg/m³),Mass concentration (μg/m³),Mass concentration (μg/m³)
DateTimeUTC,F1_M11,P_M11,Q1_M11,Q2_M11,T1_M11,T2_M11,T3_M11,T4_M11,T5_M11,U1_M11,ZSPAN_M11,X0_M11,X2_M11,X1_M11
2023-02-12 14:00:00,,0823.6,5.00,0.00,22.2,20.5,00.0,31.1,23.9,11.7,0000.0,0011.10,0006.26,0005.87
2023-02-12 14:01:00,,0823.6,4.99,0.00,22.2,20.4,00.0,31.1,23.9,11.7,0000.0,0011.14,0006.26,0005.90
2023-02-12 14:02:00,,0823.6,4.99,0.00,22.2,20.3,00.0,31.1,23.9,11.7,0000.0,0011.00,0006.26,0005.91
2023-02-12 14:03:00,,0823.7,4.99,0.00,22.2,20.3,00.0,31.1,23.9,11.8,0000.0,0010.75,0006.26,0005.91
2023-02-12 14:04:00,,0823.7,4.99,0.00,22.1,20.2,00.0,31.1,23.8,11.8,0002.5,0010.38,0006.26,0005.91
2023-02-12 14:05:00,,0823.7,4.98,0.00,22.1,20.1,00.0,31.1,23.8,11.7,0002.2,0010.58,0006.28,0005.91
2023-02-12 14:06:00,,0823.7,5.00,0.00,22.1,20.2,00.0,31.1,23.8,11.7,0002.2,0010.57,0006.25,0005.90
2023-02-12 14:07:00,,0823.7,5.01,0.00,22.1,21.3,00.0,31.0,24.0,11.8,0002.8,0010.23,0006.25,0005.90
2023-02-12 14:08:00,,0823.7,5.01,0.00,22.3,22.4,00.0,31.0,24.3,11.7,0002.9,0009.70,0006.27,0005.90
2023-02-12 14:09:00,,0823.7,4.99,0.00,22.4,23.0,00.0,31.0,24.4,11.6,0003.5,0009.68,0006.27,0005.89
2023-02-12 14:10:00,,0823.7,4.99,0.00,22.4,22.5,00.0,31.1,24.4,11.5,0001.2,0009.74,0006.26,0005.88
2023-02-12 14:11:00,,0823.7,5.07,0.00,22.4,22.1,00.0,31.1,24.3,11.5,0000.0,0009.87,0006.27,0005.86
2023-02-12 14:12:00,,0823.7,4.97,0.00,22.4,21.6,00.0,31.1,24.2,11.5,0000.0,0009.74,0006.19,0005.79
2023-02-12 14:13:00,,0823.7,4.98,0.00,22.4,21.2,00.0,31.2,24.1,11.5,0000.0,0009.78,0006.12,0005.71
2023-02-12 14:14:00,,0823.7,5.04,0.00,22.3,20.9,00.0,31.2,24.0,11.5,0000.0,0009.53,0006.05,0005.65
2023-02-12 14:15:00,,0823.7,4.99,0.00,22.3,20.7,00.0,31.2,24.0,11.5,0000.0,0009.57,0005.99,0005.61
2023-02-12 14:16:00,,0823.7,4.99,0.00,22.2,20.5,00.0,31.1,23.9,11.6,0000.0,0009.63,0005.96,0005.58
2023-02-12 14:17:00,,0823.6,4.99,0.00,22.2,20.4,00.0,31.1,23.9,11.6,0000.0,0009.59,0006.00,0005.58
2023-02-12 14:18:00,,0823.6,5.00,0.00,22.2,20.3,00.0,31.1,23.8,11.7,0000.0,0009.48,0005.95,0005.55
2023-02-12 14:19:00,,0823.6,5.00,0.00,22.1,20.2,00.0,31.1,23.7,11.7,0000.0,0009.46,0005.94,0005.51
2023-02-12 14:20:00,,0823.7,5.01,0.00,22.1,20.1,00.0,31.1,23.7,11.7,0000.0,0009.42,0005.90,0005.48
2023-02-12 14:21:00,,0823.7,5.02,0.00,22.1,20.1,00.0,31.1,23.7,11.7,0000.0,0009.43,0005.89,0005.45
2023-02-12 14:22:00,,0823.7,5.00,0.00,22.0,20.1,00.0,31.1,23.7,11.6,0000.0,0009.32,0005.89,0005.45
2023-02-12 14:23:00,,0823.7,5.01,0.00,22.0,20.0,00.0,31.0,23.6,11.6,0000.0,0009.36,0005.94,0005.49
2023-02-12 14:24:00,,0823.7,5.02,0.00,22.0,20.4,00.0,31.0,23.7,11.7,0000.0,0009.25,0005.99,0005.54
2023-02-12 14:25:00,,0823.7,4.97,0.00,22.1,21.7,00.0,30.9,24.0,11.6,0000.0,0009.28,0006.03,0005.56
2023-02-12 14:26:00,,0823.7,5.05,0.00,22.2,22.8,00.0,31.0,24.3,11.5,0000.0,0009.17,0006.05,0005.57
2023-02-12 14:27:00,,0823.7,5.04,0.00,22.3,22.8,00.0,31.0,24.4,11.5,0000.0,0009.00,0006.05,0005.57
2023-02-12 14:28:00,,0823.7,5.02,0.00,22.4,22.4,00.0,31.1,24.3,11.4,0000.0,0008.94,0006.02,0005.56
2023-02-12 14:29:00,,0823.7,5.01,0.00,22.4,22.0,00.0,31.1,24.3,11.4,0000.0,0009.12,0006.07,0005.58
2023-02-12 14:30:00,,0823.7,5.00,0.00,22.4,21.7,00.0,31.1,24.2,11.4,0000.0,0009.13,0006.08,0005.60
2023-02-12 14:31:00,,0823.7,5.00,0.00,22.4,21.4,00.0,31.1,24.2,11.4,0000.0,0009.20,0006.13,0005.62
2023-02-12 14:32:00,,0823.7,4.99,0.00,22.4,21.1,00.0,31.2,24.1,11.4,0000.0,0009.21,0006.16,0005.64
2023-02-12 14:33:00,,0823.6,4.98,0.00,22.3,21.0,00.0,31.2,24.1,11.3,0000.0,0009.18,0006.16,0005.66
2023-02-12 14:34:00,,0823.7,5.01,0.00,22.3,20.8,00.0,31.2,24.1,11.3,0000.0,0009.12,0006.15,0005.66
2023-02-12 14:35:00,,0823.7,4.99,0.00,22.3,20.7,00.0,31.2,24.0,11.3,0000.0,0009.10,0006.15,0005.68
2023-02-12 14:36:00,,0823.6,5.01,0.00,22.3,20.5,00.0,31.2,24.0,11.4,0000.0,0009.19,0006.16,0005.70
2023-02-12 14:37:00,,0823.7,5.02,0.00,22.2,20.5,00.0,31.2,24.0,11.4,0000.0,0009.28,0006.18,0005.72
2023-02-12 14:38:00,,0823.7,5.01,0.00,22.2,20.5,00.0,31.1,24.0,11.4,0000.0,0009.34,0006.22,0005.74
2023-02-12 14:39:00,,0823.7,5.01,0.00,22.2,20.4,00.0,31.1,23.9,11.4,0000.0,0009.39,0006.24,0005.74
2023-02-12 14:40:00,,0823.7,4.99,0.00,22.2,20.4,00.0,31.1,23.9,11.4,0000.0,0009.26,0006.21,0005.75
2023-02-12 14:41:00,,0823.6,5.00,0.00,22.2,20.3,00.0,31.1,23.9,11.4,0000.0,0009.92,0006.19,0005.75
2023-02-12 14:42:00,,0823.7,5.00,0.00,22.1,20.3,00.0,31.1,23.9,11.4,0000.0,0010.21,0006.20,0005.76
2023-02-12 14:43:00,,0823.7,5.01,0.00,22.1,20.3,00.0,31.1,23.8,11.4,0000.0,0010.36,0006.22,0005.75
2023-02-12 14:44:00,,0823.6,4.99,0.00,22.1,20.3,00.0,31.1,23.8,11.5,0000.0,0010.51,0006.23,0005.75
2023-02-12 14:45:00,,0823.7,5.00,0.00,22.1,20.2,00.0,31.0,23.7,11.5,0000.0,0010.70,0006.24,0005.74
2023-02-12 14:46:00,,0823.7,5.01,0.00,22.1,20.7,00.0,31.0,23.8,11.5,0000.0,0010.74,0006.25,0005.75
2023-02-12 14:47:00,,0823.7,5.02,0.00,22.2,22.0,00.0,31.0,24.1,11.5,0002.2,0010.68,0006.26,0005.74
2023-02-12 14:48:00,,0823.7,4.99,0.00,22.3,22.9,00.0,31.0,24.4,11.4,0004.1,0010.86,0006.30,0005.75
2023-02-12 14:49:00,,0823.6,5.00,0.00,22.4,22.7,00.0,31.0,24.4,11.5,0003.0,0011.37,0006.30,0005.75
2023-02-12 14:50:00,,0823.7,5.05,0.00,22.4,22.2,00.0,31.1,24.3,11.5,0003.2,0011.23,0006.26,0005.75
2023-02-12 14:51:00,,0823.7,5.03,0.00,22.4,21.7,00.0,31.1,24.2,11.4,0000.0,0011.28,0006.28,0005.76
2023-02-12 14:52:00,,0823.6,5.02,0.00,22.3,21.3,00.0,31.1,24.0,11.4,0000.0,0010.74,0006.28,0005.76
2023-02-12 14:53:00,,0823.6,5.03,0.00,22.3,21.0,00.0,31.1,24.0,11.5,0000.0,0010.38,0006.29,0005.76
2023-02-12 14:54:00,,0823.6,5.01,0.00,22.3,20.8,00.0,31.1,24.0,11.6,0000.0,0010.27,0006.31,0005.79
2023-02-12 14:55:00,,0823.6,5.00,0.00,22.2,20.7,00.0,31.1,23.9,11.7,0000.0,0010.81,0006.32,0005.80
2023-02-12 14:56:00,,0823.6,4.99,0.00,22.2,20.5,00.0,31.1,23.8,11.6,0000.0,0010.65,0006.33,0005.81
2023-02-12 14:57:00,,0823.7,4.99,0.00,22.2,20.4,00.0,31.1,23.8,11.6,0000.0,0011.23,0006.37,0005.82
2023-02-12 14:58:00,,0823.5,4.98,0.00,22.1,20.2,00.0,31.1,23.7,11.7,0000.0,0011.35,0006.35,0005.82
2023-02-12 14:59:00,,0823.6,4.99,0.00,22.1,20.2,00.0,31.1,23.8,11.9,0000.0,0011.18,0006.34,0005.83
